{"data":{"norad_id":66926,"epoch":"2026-09-20T11:30:32.241312Z","epoch_age_seconds":86078,"freshness":"FRESH","line1":"1 66926U 25286B   26263.47953983  .00011513  00000+0  35137-3 0  9991","line2":"2 66926  53.1596 169.8697 0001001  87.5657 272.5461 15.34399865 45296","mean_motion":15.34399865,"eccentricity":0.0001001,"inclination_deg":53.1596,"raan_deg":169.8697,"arg_perigee_deg":87.5657,"mean_anomaly_deg":272.5461,"bstar":0.00035137,"rev_number":4529,"period_min":93.847766338275,"perigee_km":462.01887330737,"apogee_km":463.3884096038,"semimajor_km":6840.8406414556,"source":"CELESTRAK","updated_at":"2026-09-21T09:00:36.055596Z"}}